Location: Novokuznetsk
(53.7500°N, 87.1000°E)
Time: 23:19:14
(UTC+06:00)

ISS - Pass Details

Date: 27 May 2021
Orbit: 417 x 422 km, 51.6° (Epoch: 16 June)

Event Time Altitude Azimuth Distance (km) Brightness Sun altitude
Rises 21:35:31 0° 278° (W) 2,368 0.8 -7.9°
Reaches altitude 10° 21:37:48 10° 266° (W) 1,502 -0.5 -8.1°
Maximum altitude 21:40:42 27° 207° (SSW) 844 -2.5 -8.3°
Enters shadow 21:43:15 12° 151° (SSE) 1,379 -1.8 -8.6°
